Location: Red Deer
(52.2681°N, 113.8112°W)
Time: 02:16:17
(UTC-07:00)

BlueWalker 3 - Pass Details

Date: 03 December 2022
Orbit: 499 x 517 km, 53.2° (Epoch: 29 January)

Event Time Altitude Azimuth Distance (km) Brightness Sun altitude
Rises 19:46:53 0° 286° (WNW) 2,627 6.7 -29.8°
Reaches altitude 10° 19:49:06 10° 284° (WNW) 1,734 5.5 -30.1°
Enters shadow 19:50:47 24° 277° (W) 1,094 4.2 -30.4°
